Wetterdaten: Freitag, 03.10.2014
Datum Zeit Temperatur Luftfeuchte Luftdruck Regen Wind Richtung Richtung Taupunkt Windchill Windben
03.10.2014 00:00 11,8 C 91 % 1028,4 hPa 0,0 l/m 0,0 km/h (0 Bft) S-SO 157 10,4 C 22,8 C 0,0 km/h (0 Bft)
03.10.2014 00:10 11,7 C 92 % 1028,2 hPa 0,0 l/m 0,0 km/h (0 Bft) S-SO 157 10,4 C 22,8 C 0,0 km/h (0 Bft)
03.10.2014 00:20 11,7 C 92 % 1028,2 hPa 0,0 l/m 0,0 km/h (0 Bft) S-SO 157 10,4 C 22,8 C 0,0 km/h (0 Bft)
03.10.2014 00:30 11,5 C 92 % 1028,2 hPa 0,0 l/m 0,0 km/h (0 Bft) S-SO 157 10,2 C 22,8 C 0,0 km/h (0 Bft)
03.10.2014 00:40 11,5 C 92 % 1028,2 hPa 0,0 l/m 0,0 km/h (0 Bft) S-SO 157 10,2 C 22,8 C 0,0 km/h (0 Bft)
03.10.2014 00:50 11,5 C 92 % 1028,2 hPa 0,0 l/m 0,0 km/h (0 Bft) S-SO 157 10,2 C 22,8 C 0,0 km/h (0 Bft)
03.10.2014 01:00 11,4 C 92 % 1028,2 hPa 0,0 l/m 0,0 km/h (0 Bft) S-SO 157 10,1 C 22,8 C 0,0 km/h (0 Bft)
03.10.2014 01:10 11,4 C 92 % 1028,1 hPa 0,0 l/m 0,0 km/h (0 Bft) S-SO 157 10,1 C 22,8 C 0,0 km/h (0 Bft)
03.10.2014 01:20 11,3 C 91 % 1028,1 hPa 0,0 l/m 0,0 km/h (0 Bft) S-SO 157 9,9 C 22,8 C 0,0 km/h (0 Bft)
03.10.2014 01:30 11,2 C 91 % 1027,9 hPa 0,0 l/m 0,0 km/h (0 Bft) S-SO 157 9,8 C 22,8 C 0,0 km/h (0 Bft)
03.10.2014 01:40 11,0 C 91 % 1027,9 hPa 0,0 l/m 0,0 km/h (0 Bft) S-SO 157 9,6 C 22,8 C 0,0 km/h (0 Bft)
03.10.2014 01:48 10,8 C 92 % 1027,9 hPa 0,0 l/m 0,0 km/h (0 Bft) S-SO 157 9,6 C 22,8 C 0,0 km/h (0 Bft)
03.10.2014 01:50 10,5 C 91 % 1027,9 hPa 0,0 l/m 0,0 km/h (0 Bft) S-SO 157 9,1 C 22,8 C 0,0 km/h (0 Bft)
03.10.2014 02:00 10,4 C 92 % 1027,9 hPa 0,0 l/m 0,0 km/h (0 Bft) S-SO 157 9,2 C 22,8 C 0,0 km/h (0 Bft)
03.10.2014 02:10 10,0 C 92 % 1027,9 hPa 0,0 l/m 0,0 km/h (0 Bft) S-SO 157 8,8 C 22,8 C 0,0 km/h (0 Bft)
03.10.2014 02:20 9,4 C 92 % 1027,9 hPa 0,0 l/m 0,0 km/h (0 Bft) S-SO 157 8,2 C 22,8 C 0,0 km/h (0 Bft)
03.10.2014 02:30 9,4 C 92 % 1027,9 hPa 0,0 l/m 0,0 km/h (0 Bft) S-SO 157 8,2 C 22,8 C 0,0 km/h (0 Bft)
03.10.2014 02:40 9,1 C 92 % 1027,9 hPa 0,0 l/m 0,0 km/h (0 Bft) S-SO 157 7,9 C 22,8 C 0,0 km/h (0 Bft)
03.10.2014 02:50 9,0 C 92 % 1027,7 hPa 0,0 l/m 0,0 km/h (0 Bft) S-SO 157 7,8 C 22,8 C 0,0 km/h (0 Bft)
03.10.2014 03:00 8,9 C 92 % 1027,7 hPa 0,0 l/m 0,0 km/h (0 Bft) S-SO 157 7,7 C 22,8 C 0,0 km/h (0 Bft)
03.10.2014 03:10 8,8 C 92 % 1027,4 hPa 0,0 l/m 0,0 km/h (0 Bft) S-SO 157 7,6 C 22,8 C 0,0 km/h (0 Bft)
03.10.2014 03:20 8,7 C 92 % 1027,4 hPa 0,0 l/m 0,0 km/h (0 Bft) S-SO 157 7,5 C 22,8 C 0,0 km/h (0 Bft)
03.10.2014 03:30 8,2 C 92 % 1027,4 hPa 0,0 l/m 0,0 km/h (0 Bft) S-SO 157 7,0 C 22,8 C 0,0 km/h (0 Bft)
03.10.2014 03:40 7,6 C 92 % 1027,4 hPa 0,0 l/m 0,0 km/h (0 Bft) S-SO 157 6,4 C 22,8 C 0,0 km/h (0 Bft)
03.10.2014 03:50 7,3 C 92 % 1026,9 hPa 0,0 l/m 0,0 km/h (0 Bft) S-SO 157 6,1 C 22,8 C 0,0 km/h (0 Bft)
03.10.2014 04:00 7,5 C 92 % 1026,9 hPa 0,0 l/m 0,0 km/h (0 Bft) S-SO 157 6,3 C 22,8 C 0,0 km/h (0 Bft)
03.10.2014 04:10 8,0 C 92 % 1027,2 hPa 0,0 l/m 0,0 km/h (0 Bft) S-SO 157 6,8 C 22,8 C 0,0 km/h (0 Bft)
03.10.2014 04:20 8,1 C 92 % 1027,2 hPa 0,0 l/m 0,0 km/h (0 Bft) S-SO 157 6,9 C 22,8 C 0,0 km/h (0 Bft)
03.10.2014 04:30 8,3 C 93 % 1027,1 hPa 0,0 l/m 0,0 km/h (0 Bft) S-SO 157 7,2 C 22,8 C 0,0 km/h (0 Bft)
03.10.2014 04:40 8,5 C 93 % 1027,1 hPa 0,0 l/m 0,0 km/h (0 Bft) S-SO 157 7,4 C 22,8 C 0,0 km/h (0 Bft)
03.10.2014 04:48 8,5 C 93 % 1026,9 hPa 0,0 l/m 0,0 km/h (0 Bft) S-SO 157 7,4 C 22,8 C 0,0 km/h (0 Bft)
03.10.2014 04:50 8,4 C 93 % 1026,9 hPa 0,0 l/m 0,0 km/h (0 Bft) S-SO 157 7,3 C 22,8 C 0,0 km/h (0 Bft)
03.10.2014 05:00 8,2 C 93 % 1027,0 hPa 0,0 l/m 0,0 km/h (0 Bft) S-SO 157 7,1 C 22,8 C 0,0 km/h (0 Bft)
03.10.2014 05:10 8,2 C 93 % 1027,0 hPa 0,0 l/m 0,0 km/h (0 Bft) S-SO 157 7,1 C 22,8 C 0,0 km/h (0 Bft)
03.10.2014 05:20 8,2 C 93 % 1027,0 hPa 0,0 l/m 0,0 km/h (0 Bft) S-SO 157 7,1 C 22,8 C 0,0 km/h (0 Bft)
03.10.2014 05:30 8,1 C 93 % 1026,9 hPa 0,0 l/m 0,0 km/h (0 Bft) S-SO 157 7,0 C 22,8 C 0,0 km/h (0 Bft)
03.10.2014 05:40 7,9 C 94 % 1026,9 hPa 0,0 l/m 0,0 km/h (0 Bft) S-SO 157 7,0 C 22,8 C 0,0 km/h (0 Bft)
03.10.2014 05:50 7,8 C 94 % 1026,9 hPa 0,0 l/m 0,0 km/h (0 Bft) S-SO 157 6,9 C 22,8 C 0,0 km/h (0 Bft)
03.10.2014 06:00 7,9 C 94 % 1026,9 hPa 0,0 l/m 0,0 km/h (0 Bft) S-SO 157 7,0 C 22,8 C 0,0 km/h (0 Bft)
03.10.2014 06:11 8,0 C 94 % 1027,1 hPa 0,0 l/m 0,0 km/h (0 Bft) S-SO 157 7,1 C 22,8 C 0,0 km/h (0 Bft)
03.10.2014 06:12 8,0 C 94 % 1027,1 hPa 0,0 l/m 0,0 km/h (0 Bft) - - 0 7,1 C 22,8 C 0,0 km/h (0 Bft)
03.10.2014 06:20 8,0 C 94 % 1027,1 hPa 0,0 l/m 0,0 km/h (0 Bft) - - 0 7,1 C 22,8 C 0,0 km/h (0 Bft)
03.10.2014 06:30 7,9 C 94 % 1027,1 hPa 0,0 l/m 0,0 km/h (0 Bft) S-SO 157 7,0 C 22,8 C 0,0 km/h (0 Bft)
03.10.2014 06:40 8,0 C 94 % 1027,1 hPa 0,0 l/m 0,0 km/h (0 Bft) S-SO 157 7,1 C 22,8 C 0,0 km/h (0 Bft)
03.10.2014 06:50 8,0 C 94 % 1026,9 hPa 0,0 l/m 0,0 km/h (0 Bft) S-SO 157 7,1 C 22,8 C 0,0 km/h (0 Bft)
03.10.2014 07:00 8,1 C 94 % 1026,9 hPa 0,0 l/m 0,0 km/h (0 Bft) S-SO 157 7,2 C 22,8 C 0,0 km/h (0 Bft)
03.10.2014 07:10 8,2 C 94 % 1026,8 hPa 0,0 l/m 0,0 km/h (0 Bft) S-SO 157 7,3 C 22,8 C 0,0 km/h (0 Bft)
03.10.2014 07:20 8,3 C 94 % 1026,8 hPa 0,0 l/m 0,0 km/h (0 Bft) S-SO 157 7,4 C 22,8 C 0,0 km/h (0 Bft)
03.10.2014 07:30 8,3 C 95 % 1026,8 hPa 0,0 l/m 0,0 km/h (0 Bft) S-SO 157 7,5 C 22,8 C 0,0 km/h (0 Bft)
03.10.2014 07:40 8,3 C 95 % 1026,8 hPa 0,0 l/m 0,0 km/h (0 Bft) S-SO 157 7,5 C 22,8 C 0,0 km/h (0 Bft)
03.10.2014 07:50 8,3 C 95 % 1026,8 hPa 0,0 l/m 0,0 km/h (0 Bft) S-SO 157 7,5 C 22,8 C 0,0 km/h (0 Bft)
03.10.2014 08:00 8,4 C 95 % 1026,7 hPa 0,0 l/m 0,0 km/h (0 Bft) S-SO 157 7,6 C 22,8 C 0,0 km/h (0 Bft)
03.10.2014 08:10 8,6 C 95 % 1026,7 hPa 0,0 l/m 0,0 km/h (0 Bft) S-SO 157 7,8 C 22,8 C 0,0 km/h (0 Bft)
03.10.2014 08:20 8,6 C 95 % 1026,7 hPa 0,0 l/m 0,0 km/h (0 Bft) S-SO 157 7,8 C 22,8 C 0,0 km/h (0 Bft)
03.10.2014 08:30 8,9 C 95 % 1026,7 hPa 0,0 l/m 0,0 km/h (0 Bft) S-SO 157 8,1 C 22,8 C 0,0 km/h (0 Bft)
03.10.2014 08:40 9,4 C 95 % 1026,7 hPa 0,0 l/m 0,0 km/h (0 Bft) S-SO 157 8,6 C 22,8 C 0,0 km/h (0 Bft)
03.10.2014 08:50 9,3 C 95 % 1027,0 hPa 0,0 l/m 0,0 km/h (0 Bft) S-SO 157 8,5 C 22,8 C 0,0 km/h (0 Bft)
03.10.2014 09:00 9,5 C 95 % 1027,0 hPa 0,0 l/m 0,0 km/h (0 Bft) S-SO 157 8,7 C 22,8 C 0,0 km/h (0 Bft)
03.10.2014 09:10 9,6 C 95 % 1027,0 hPa 0,0 l/m 0,0 km/h (0 Bft) S-SO 157 8,8 C 22,8 C 0,0 km/h (0 Bft)
03.10.2014 09:20 9,8 C 95 % 1027,0 hPa 0,0 l/m 0,0 km/h (0 Bft) S-SO 157 9,0 C 22,8 C 0,0 km/h (0 Bft)
03.10.2014 09:30 9,8 C 95 % 1027,1 hPa 0,0 l/m 0,0 km/h (0 Bft) S-SO 157 9,0 C 22,8 C 0,0 km/h (0 Bft)
03.10.2014 09:40 9,9 C 95 % 1027,1 hPa 0,0 l/m 0,0 km/h (0 Bft) S-SO 157 9,1 C 22,8 C 0,0 km/h (0 Bft)
03.10.2014 09:50 10,1 C 95 % 1027,1 hPa 0,0 l/m 0,0 km/h (0 Bft) S-SO 157 9,3 C 22,8 C 0,0 km/h (0 Bft)
03.10.2014 10:00 10,5 C 95 % 1027,1 hPa 0,0 l/m 0,0 km/h (0 Bft) S-SO 157 9,7 C 22,8 C 0,0 km/h (0 Bft)
03.10.2014 10:10 10,9 C 95 % 1027,7 hPa 0,0 l/m 0,0 km/h (0 Bft) S-SO 157 10,1 C 22,8 C 0,0 km/h (0 Bft)
03.10.2014 10:20 10,8 C 95 % 1027,7 hPa 0,0 l/m 0,0 km/h (0 Bft) S-SO 157 10,0 C 22,8 C 0,0 km/h (0 Bft)
03.10.2014 10:30 10,9 C 95 % 1027,8 hPa 0,0 l/m 0,0 km/h (0 Bft) S-SO 157 10,1 C 22,8 C 0,0 km/h (0 Bft)
03.10.2014 10:38 10,8 C 94 % 1027,8 hPa 0,0 l/m 0,0 km/h (0 Bft) S-SO 157 9,9 C 22,8 C 0,0 km/h (0 Bft)
03.10.2014 10:40 11,3 C 94 % 1027,2 hPa 0,0 l/m 0,0 km/h (0 Bft) S-SO 157 10,4 C 22,8 C 0,0 km/h (0 Bft)
03.10.2014 10:50 11,2 C 94 % 1027,2 hPa 0,0 l/m 0,0 km/h (0 Bft) S-SO 157 10,3 C 22,8 C 0,0 km/h (0 Bft)
03.10.2014 11:00 11,5 C 93 % 1027,2 hPa 0,0 l/m 0,0 km/h (0 Bft) S-SO 157 10,4 C 22,8 C 0,0 km/h (0 Bft)
03.10.2014 11:10 11,6 C 92 % 1027,2 hPa 0,0 l/m 0,0 km/h (0 Bft) S-SO 157 10,3 C 22,8 C 0,0 km/h (0 Bft)
03.10.2014 11:20 11,6 C 92 % 1027,2 hPa 0,0 l/m 0,0 km/h (0 Bft) S-SO 157 10,3 C 22,8 C 0,0 km/h (0 Bft)
03.10.2014 11:30 11,5 C 91 % 1027,4 hPa 0,0 l/m 0,0 km/h (0 Bft) S-SO 157 10,1 C 22,8 C 0,0 km/h (0 Bft)
03.10.2014 11:40 11,5 C 90 % 1027,4 hPa 0,0 l/m 0,0 km/h (0 Bft) S-SO 157 9,9 C 22,8 C 0,0 km/h (0 Bft)
03.10.2014 11:50 11,4 C 89 % 1027,4 hPa 0,0 l/m 0,0 km/h (0 Bft) S-SO 157 9,7 C 22,8 C 0,0 km/h (0 Bft)
03.10.2014 12:00 11,3 C 89 % 1027,4 hPa 0,0 l/m 0,0 km/h (0 Bft) S-SO 157 9,6 C 22,8 C 0,0 km/h (0 Bft)
03.10.2014 12:10 11,4 C 89 % 1027,1 hPa 0,0 l/m 0,0 km/h (0 Bft) S-SO 157 9,7 C 22,8 C 0,0 km/h (0 Bft)
03.10.2014 12:20 11,2 C 88 % 1027,1 hPa 0,0 l/m 0,0 km/h (0 Bft) S-SO 157 9,3 C 22,8 C 0,0 km/h (0 Bft)
03.10.2014 12:30 11,6 C 89 % 1027,0 hPa 0,0 l/m 0,0 km/h (0 Bft) S-SO 157 9,8 C 22,8 C 0,0 km/h (0 Bft)
03.10.2014 12:40 11,8 C 89 % 1027,0 hPa 0,0 l/m 0,0 km/h (0 Bft) S-SO 157 10,0 C 22,8 C 0,0 km/h (0 Bft)
03.10.2014 12:50 11,8 C 88 % 1027,1 hPa 0,0 l/m 0,0 km/h (0 Bft) S-SO 157 9,9 C 22,8 C 0,0 km/h (0 Bft)
03.10.2014 13:00 12,2 C 88 % 1027,1 hPa 0,0 l/m 0,0 km/h (0 Bft) S-SO 157 10,3 C 22,8 C 0,0 km/h (0 Bft)
03.10.2014 13:10 12,5 C 87 % 1026,8 hPa 0,0 l/m 0,0 km/h (0 Bft) S-SO 157 10,4 C 22,8 C 0,0 km/h (0 Bft)
03.10.2014 13:20 12,2 C 86 % 1026,8 hPa 0,0 l/m 0,0 km/h (0 Bft) S-SO 157 9,9 C 22,8 C 0,0 km/h (0 Bft)
03.10.2014 13:30 12,1 C 87 % 1027,1 hPa 0,0 l/m 0,0 km/h (0 Bft) S-SO 157 10,0 C 22,8 C 0,0 km/h (0 Bft)
03.10.2014 13:38 12,6 C 87 % 1027,1 hPa 0,0 l/m 0,0 km/h (0 Bft) S-SO 157 10,5 C 22,8 C 0,0 km/h (0 Bft)
03.10.2014 13:40 12,2 C 84 % 1026,8 hPa 0,0 l/m 0,0 km/h (0 Bft) S-SO 157 9,6 C 22,8 C 0,0 km/h (0 Bft)
03.10.2014 13:50 12,4 C 84 % 1026,8 hPa 0,0 l/m 0,0 km/h (0 Bft) S-SO 157 9,8 C 22,8 C 0,0 km/h (0 Bft)
03.10.2014 14:00 12,4 C 85 % 1026,8 hPa 0,0 l/m 0,0 km/h (0 Bft) S-SO 157 9,9 C 22,8 C 0,0 km/h (0 Bft)
03.10.2014 14:10 12,7 C 86 % 1026,8 hPa 0,0 l/m 0,0 km/h (0 Bft) S-SO 157 10,4 C 22,8 C 0,0 km/h (0 Bft)
03.10.2014 14:20 12,7 C 86 % 1026,8 hPa 0,0 l/m 0,0 km/h (0 Bft) S-SO 157 10,4 C 22,8 C 0,0 km/h (0 Bft)
03.10.2014 14:30 12,9 C 81 % 1026,8 hPa 0,0 l/m 0,0 km/h (0 Bft) S-SO 157 9,7 C 22,8 C 0,0 km/h (0 Bft)
03.10.2014 14:40 12,6 C 81 % 1026,8 hPa 0,0 l/m 0,0 km/h (0 Bft) S-SO 157 9,4 C 22,8 C 0,0 km/h (0 Bft)
03.10.2014 14:50 12,9 C 81 % 1026,7 hPa 0,0 l/m 0,0 km/h (0 Bft) S-SO 157 9,7 C 22,8 C 0,0 km/h (0 Bft)
03.10.2014 15:00 13,9 C 78 % 1026,7 hPa 0,0 l/m 0,0 km/h (0 Bft) S-SO 157 10,1 C 22,8 C 0,0 km/h (0 Bft)
03.10.2014 15:10 14,5 C 72 % 1026,4 hPa 0,0 l/m 0,0 km/h (0 Bft) S-SO 157 9,5 C 22,8 C 0,0 km/h (0 Bft)
03.10.2014 15:20 14,7 C 71 % 1026,4 hPa 0,0 l/m 0,0 km/h (0 Bft) S-SO 157 9,5 C 22,8 C 0,0 km/h (0 Bft)
03.10.2014 15:30 14,7 C 72 % 1026,4 hPa 0,0 l/m 0,0 km/h (0 Bft) S-SO 157 9,7 C 22,8 C 0,0 km/h (0 Bft)
03.10.2014 15:40 16,1 C 64 % 1026,4 hPa 0,0 l/m 0,0 km/h (0 Bft) S-SO 157 9,3 C 22,8 C 0,0 km/h (0 Bft)
03.10.2014 15:50 15,2 C 63 % 1026,4 hPa 0,0 l/m 0,0 km/h (0 Bft) S-SO 157 8,2 C 22,8 C 0,0 km/h (0 Bft)
03.10.2014 16:00 15,4 C 66 % 1026,4 hPa 0,0 l/m 0,0 km/h (0 Bft) S-SO 157 9,1 C 22,8 C 0,0 km/h (0 Bft)
03.10.2014 16:10 14,4 C 67 % 1026,2 hPa 0,0 l/m 0,0 km/h (0 Bft) S-SO 157 8,4 C 22,8 C 0,0 km/h (0 Bft)
03.10.2014 16:20 14,4 C 68 % 1026,2 hPa 0,0 l/m 0,0 km/h (0 Bft) S-SO 157 8,6 C 22,8 C 0,0 km/h (0 Bft)
03.10.2014 16:30 14,4 C 69 % 1025,9 hPa 0,0 l/m 0,0 km/h (0 Bft) S-SO 157 8,8 C 22,8 C 0,0 km/h (0 Bft)
03.10.2014 16:38 14,1 C 71 % 1025,9 hPa 0,0 l/m 0,0 km/h (0 Bft) S-SO 157 8,9 C 22,8 C 0,0 km/h (0 Bft)
03.10.2014 16:40 13,9 C 74 % 1025,8 hPa 0,0 l/m 0,0 km/h (0 Bft) S-SO 157 9,3 C 22,8 C 0,0 km/h (0 Bft)
03.10.2014 16:50 13,7 C 75 % 1025,8 hPa 0,0 l/m 0,0 km/h (0 Bft) S-SO 157 9,3 C 22,8 C 0,0 km/h (0 Bft)
03.10.2014 17:00 13,8 C 75 % 1025,5 hPa 0,0 l/m 0,0 km/h (0 Bft) S-SO 157 9,4 C 22,8 C 0,0 km/h (0 Bft)
03.10.2014 17:10 13,4 C 76 % 1025,5 hPa 0,0 l/m 0,0 km/h (0 Bft) S-SO 157 9,3 C 22,8 C 0,0 km/h (0 Bft)
03.10.2014 17:20 13,4 C 76 % 1025,5 hPa 0,0 l/m 0,0 km/h (0 Bft) S-SO 157 9,3 C 22,8 C 0,0 km/h (0 Bft)
03.10.2014 17:30 13,4 C 75 % 1025,3 hPa 0,0 l/m 0,0 km/h (0 Bft) S-SO 157 9,1 C 22,8 C 0,0 km/h (0 Bft)
03.10.2014 17:40 13,1 C 69 % 1025,3 hPa 0,0 l/m 0,0 km/h (0 Bft) S-SO 157 7,5 C 22,8 C 0,0 km/h (0 Bft)
03.10.2014 17:50 12,5 C 71 % 1025,4 hPa 0,0 l/m 0,0 km/h (0 Bft) S-SO 157 7,4 C 22,8 C 0,0 km/h (0 Bft)
03.10.2014 18:00 12,1 C 74 % 1025,4 hPa 0,0 l/m 0,0 km/h (0 Bft) S-SO 157 7,6 C 22,8 C 0,0 km/h (0 Bft)
03.10.2014 18:10 12,1 C 76 % 1025,4 hPa 0,0 l/m 0,0 km/h (0 Bft) S-SO 157 8,0 C 22,8 C 0,0 km/h (0 Bft)
03.10.2014 18:20 11,7 C 77 % 1025,4 hPa 0,0 l/m 0,0 km/h (0 Bft) S-SO 157 7,8 C 22,8 C 0,0 km/h (0 Bft)
03.10.2014 18:30 11,4 C 78 % 1025,5 hPa 0,0 l/m 0,0 km/h (0 Bft) S-SO 157 7,7 C 22,8 C 0,0 km/h (0 Bft)
03.10.2014 18:40 11,0 C 79 % 1025,5 hPa 0,0 l/m 0,0 km/h (0 Bft) S-SO 157 7,5 C 22,8 C 0,0 km/h (0 Bft)
03.10.2014 18:50 10,7 C 81 % 1025,3 hPa 0,0 l/m 0,0 km/h (0 Bft) S-SO 157 7,6 C 22,8 C 0,0 km/h (0 Bft)
03.10.2014 19:00 10,3 C 83 % 1025,3 hPa 0,0 l/m 0,0 km/h (0 Bft) S-SO 157 7,5 C 22,8 C 0,0 km/h (0 Bft)
03.10.2014 19:10 9,8 C 84 % 1025,4 hPa 0,0 l/m 0,0 km/h (0 Bft) S-SO 157 7,2 C 22,8 C 0,0 km/h (0 Bft)
03.10.2014 19:20 9,4 C 85 % 1025,4 hPa 0,0 l/m 0,0 km/h (0 Bft) S-SO 157 7,0 C 22,8 C 0,0 km/h (0 Bft)
03.10.2014 19:30 9,1 C 86 % 1025,2 hPa 0,0 l/m 0,0 km/h (0 Bft) S-SO 157 6,9 C 22,8 C 0,0 km/h (0 Bft)
03.10.2014 19:38 9,0 C 87 % 1025,2 hPa 0,0 l/m 0,0 km/h (0 Bft) S-SO 157 7,0 C 22,8 C 0,0 km/h (0 Bft)
03.10.2014 19:40 8,4 C 87 % 1025,2 hPa 0,0 l/m 0,0 km/h (0 Bft) S-SO 157 6,4 C 22,8 C 0,0 km/h (0 Bft)
03.10.2014 19:50 7,9 C 88 % 1025,2 hPa 0,0 l/m 0,0 km/h (0 Bft) S-SO 157 6,0 C 22,8 C 0,0 km/h (0 Bft)
03.10.2014 20:00 7,8 C 88 % 1025,2 hPa 0,0 l/m 0,0 km/h (0 Bft) S-SO 157 5,9 C 22,8 C 0,0 km/h (0 Bft)
03.10.2014 20:10 7,4 C 88 % 1025,2 hPa 0,0 l/m 0,0 km/h (0 Bft) S-SO 157 5,5 C 22,8 C 0,0 km/h (0 Bft)
03.10.2014 20:20 7,4 C 88 % 1025,2 hPa 0,0 l/m 0,0 km/h (0 Bft) S-SO 157 5,5 C 22,8 C 0,0 km/h (0 Bft)
03.10.2014 20:30 7,2 C 88 % 1025,1 hPa 0,0 l/m 0,0 km/h (0 Bft) S-SO 157 5,3 C 22,8 C 0,0 km/h (0 Bft)
03.10.2014 20:40 7,0 C 89 % 1025,1 hPa 0,0 l/m 0,0 km/h (0 Bft) S-SO 157 5,3 C 22,8 C 0,0 km/h (0 Bft)
03.10.2014 20:50 6,9 C 89 % 1025,0 hPa 0,0 l/m 0,0 km/h (0 Bft) S-SO 157 5,2 C 22,8 C 0,0 km/h (0 Bft)
03.10.2014 21:00 6,8 C 89 % 1025,0 hPa 0,0 l/m 0,0 km/h (0 Bft) S-SO 157 5,1 C 22,8 C 0,0 km/h (0 Bft)
03.10.2014 21:10 7,1 C 89 % 1024,9 hPa 0,0 l/m 0,0 km/h (0 Bft) S-SO 157 5,4 C 22,8 C 0,0 km/h (0 Bft)
03.10.2014 21:20 6,6 C 90 % 1024,9 hPa 0,0 l/m 0,0 km/h (0 Bft) S-SO 157 5,1 C 22,8 C 0,0 km/h (0 Bft)
03.10.2014 21:30 6,4 C 90 % 1024,9 hPa 0,0 l/m 0,0 km/h (0 Bft) S-SO 157 4,9 C 22,8 C 0,0 km/h (0 Bft)
03.10.2014 21:40 6,1 C 90 % 1024,9 hPa 0,0 l/m 0,0 km/h (0 Bft) S-SO 157 4,6 C 22,8 C 0,0 km/h (0 Bft)
03.10.2014 21:50 6,2 C 90 % 1024,8 hPa 0,0 l/m 0,0 km/h (0 Bft) S-SO 157 4,7 C 22,8 C 0,0 km/h (0 Bft)
03.10.2014 22:00 6,7 C 90 % 1024,8 hPa 0,0 l/m 0,0 km/h (0 Bft) S-SO 157 5,2 C 22,8 C 0,0 km/h (0 Bft)
03.10.2014 22:10 7,1 C 90 % 1024,8 hPa 0,0 l/m 0,0 km/h (0 Bft) S-SO 157 5,6 C 22,8 C 0,0 km/h (0 Bft)
03.10.2014 22:20 7,4 C 91 % 1024,8 hPa 0,0 l/m 0,0 km/h (0 Bft) S-SO 157 6,0 C 22,8 C 0,0 km/h (0 Bft)
03.10.2014 22:30 7,7 C 91 % 1024,5 hPa 0,0 l/m 0,0 km/h (0 Bft) S-SO 157 6,3 C 22,8 C 0,0 km/h (0 Bft)
03.10.2014 22:38 8,0 C 91 % 1024,5 hPa 0,0 l/m 0,0 km/h (0 Bft) S-SO 157 6,6 C 22,8 C 0,0 km/h (0 Bft)
03.10.2014 22:40 8,2 C 91 % 1024,4 hPa 0,0 l/m 0,0 km/h (0 Bft) S-SO 157 6,8 C 22,8 C 0,0 km/h (0 Bft)
03.10.2014 22:50 8,5 C 91 % 1024,4 hPa 0,0 l/m 0,0 km/h (0 Bft) S-SO 157 7,1 C 22,8 C 0,0 km/h (0 Bft)
03.10.2014 23:00 8,7 C 92 % 1024,3 hPa 0,0 l/m 0,0 km/h (0 Bft) S-SO 157 7,5 C 22,8 C 0,0 km/h (0 Bft)
03.10.2014 23:10 8,8 C 92 % 1024,3 hPa 0,0 l/m 0,0 km/h (0 Bft) S-SO 157 7,6 C 22,8 C 0,0 km/h (0 Bft)
03.10.2014 23:20 8,9 C 92 % 1024,1 hPa 0,0 l/m 0,0 km/h (0 Bft) S-SO 157 7,7 C 22,8 C 0,0 km/h (0 Bft)
03.10.2014 23:30 8,9 C 92 % 1024,1 hPa 0,0 l/m 0,0 km/h (0 Bft) S-SO 157 7,7 C 22,8 C 0,0 km/h (0 Bft)
03.10.2014 23:40 8,9 C 92 % 1024,1 hPa 0,0 l/m 0,0 km/h (0 Bft) S-SO 157 7,7 C 22,8 C 0,0 km/h (0 Bft)
03.10.2014 23:50 9,0 C 92 % 1024,0 hPa 0,0 l/m 0,0 km/h (0 Bft) S-SO 157 7,8 C 22,8 C 0,0 km/h (0 Bft)
_ Min-Zeit 21:40 15:50 23:50 - 23:50 - - 21:40 23:50 23:50
Minimum _ 6,1 C 63 % 1024,0 hPa - 0,0 km/h (0 Bft) - - 4,6 C 22,8 C 0,0 km/h (0 Bft)
_ Max-Zeit 15:40 10:30 00:00 23:50 23:50 - - 13:38 23:50 23:50
Maximum _ 16,1 C 95 % 1028,4 hPa 0,0 l/m 0,0 km/h
S-SO (0 Bft)
- - 10,5 C 22,8 C 0,0 km/h
S-SO (0 Bft)
Durchschnitt _ 10,2 C 88 % 1026,5 hPa #0,0 l/m 0,0 km/h (0 Bft) - - - 8,2 C 22,8 C 0,0 km/h (0 Bft)